QPF
0.01 0.01 0.01 0.01 0.01 0.01 0.01 0.01 0.01 0.01 0.01 0.01 0.01 0.00 0.00 0.01 0.01 0.01 0.02 0.02 0.02 0.04 0.05 0.05 0.05 0.06 0.06 0.05 0.04 0.03 0.04 0.05 0.03 0.02 0.02 0.03 0.04 0.03 0.03 0.03 0.02 0.02 0.03 0.03
0.01 0.00 0.00 0.01 0.01 0.01 0.01 0.01 0.00 0.01 0.01 0.01 0.01 0.01 0.00 0.00 0.00 0.01 0.01 0.01 0.01 0.01 0.02 0.01 0.02 0.03 0.03 0.02 0.02 0.02 0.03 0.03 0.02 0.02 0.02 0.02 0.02 0.02 0.03 0.02 0.02 0.02 0.03 0.04
0.01 0.01 0.01 0.01 0.01 0.00 0.01 0.00 0.00 0.01 0.01 0.01 0.00 0.00 0.00 0.00 0.00 0.00 0.01 0.01 0.01 0.01 0.01 0.01 0.01 0.01 0.02 0.02 0.01 0.02 0.01 0.02 0.03 0.02 0.02 0.01 0.01 0.01 0.02 0.02 0.02 0.02 0.02 0.02
0.01 0.01 0.01 0.02 0.02 0.01 0.01 0.00 0.01 0.01 0.01 0.01 0.01 0.01 0.00 0.00 0.00 0.00 0.01 0.01 0.01 0.01 0.01 0.01 0.01 0.01 0.02 0.02 0.02 0.02 0.02 0.02 0.03 0.02 0.02 0.02 0.01 0.01 0.02 0.02 0.03 0.02 0.02 0.02
0.02 0.02 0.02 0.03 0.03 0.01 0.01 0.01 0.01 0.01 0.01 0.01 0.01 0.01 0.00 0.00 0.00 0.00 0.01 0.01 0.01 0.01 0.01 0.01 0.01 0.01 0.01 0.02 0.02 0.02 0.02 0.03 0.03 0.03 0.02 0.03 0.03 0.02 0.02 0.03 0.03 0.03 0.03 0.03
0.01 0.02 0.02 0.02 0.02 0.01 0.01 0.01 0.01 0.01 0.01 0.01 0.01 0.01 0.01 0.01 0.01 0.01 0.01 0.01 0.00 0.00 0.01 0.01 0.01 0.01 0.01 0.02 0.02 0.02 0.02 0.03 0.04 0.05 0.06 0.05 0.05 0.04 0.03 0.04 0.03 0.03 0.03 0.03
0.01 0.02 0.01 0.02 0.02 0.01 0.02 0.02 0.02 0.01 0.02 0.01 0.01 0.01 0.01 0.01 0.00 0.00 0.00 0.00 0.00 0.00 0.01 0.01 0.01 0.01 0.01 0.01 0.02 0.02 0.03 0.03 0.03 0.04 0.06 0.07 0.07 0.06 0.04 0.03 0.03 0.02 0.01 0.01
0.01 0.01 0.01 0.01 0.01 0.01 0.01 0.01 0.01 0.01 0.01 0.01 0.00 0.01 0.00 0.00 0.00 0.00 0.00 0.00 0.00 0.00 0.01 0.02 0.01 0.01 0.01 0.02 0.02 0.04 0.04 0.03 0.03 0.03 0.04 0.05 0.06 0.07 0.05 0.04 0.03 0.02 0.01 0.01
0.02 0.01 0.01 0.01 0.01 0.01 0.01 0.01 0.01 0.01 0.01 0.00 0.00 0.00 0.00 0.00 0.00 0.00 0.00 0.00 0.00 0.00 0.01 0.01 0.02 0.02 0.02 0.02 0.02 0.03 0.03 0.02 0.03 0.03 0.04 0.05 0.06 0.06 0.06 0.04 0.04 0.02 0.01 0.01
0.01 0.01 0.01 0.01 0.01 0.01 0.01 0.01 0.02 0.02 0.00 0.00 0.00 0.00 0.00 0.00 0.00 0.00 0.00 0.00 0.00 0.00 0.00 0.01 0.02 0.02 0.02 0.02 0.02 0.02 0.01 0.01 0.02 0.03 0.04 0.05 0.05 0.06 0.06 0.06 0.06 0.05 0.02 0.01
0.01 0.00 0.00 0.01 0.01 0.01 0.01 0.01 0.02 0.03 0.01 0.00 0.00 0.00 0.00 0.00 0.00 0.00 0.00 0.00 0.00 0.00 0.00 0.00 0.01 0.01 0.01 0.01 0.01 0.01 0.01 0.01 0.01 0.02 0.04 0.05 0.05 0.06 0.07 0.07 0.06 0.07 0.05 0.02
0.01 0.00 0.00 0.01 0.00 0.00 0.00 0.00 0.01 0.02 0.01 0.00 0.00 0.00 0.00 0.00 0.00 0.00 0.00 0.00 0.00 0.00 0.00 0.00 0.00 0.00 0.00 0.00 0.00 0.00 0.01 0.01 0.01 0.01 0.03 0.04 0.04 0.04 0.05 0.06 0.07 0.06 0.05 0.04
0.01 0.01 0.01 0.01 0.00 0.01 0.01 0.00 0.00 0.01 0.01 0.00 0.00 0.00 0.00 0.00 0.00 0.00 0.00 0.00 0.00 0.00 0.00 0.00 0.00 0.00 0.00 0.00 0.00 0.00 0.01 0.01 0.01 0.01 0.01 0.03 0.03 0.03 0.04 0.04 0.05 0.06 0.05 0.06
0.01 0.01 0.01 0.01 0.00 0.00 0.00 0.00 0.00 0.00 0.02 0.01 0.00 0.00 0.00 0.00 0.00 0.00 0.00 0.00 0.00 0.00 0.00 0.00 0.00 0.00 0.00 0.00 0.01 0.01 0.01 0.01 0.01 0.01 0.02 0.02 0.03 0.03 0.03 0.03 0.03 0.04 0.04 0.05
0.00 0.00 0.00 0.00 0.00 0.00 0.00 0.00 0.00 0.00 0.01 0.01 0.00 0.00 0.00 0.00 0.00 0.00 0.00 0.00 0.00 0.00 0.00 0.00 0.00 0.00 0.00 0.00 0.01 0.01 0.02 0.01 0.02 0.01 0.01 0.01 0.02 0.02 0.03 0.03 0.02 0.03 0.04 0.04
0.00 0.00 0.00 0.01 0.00 0.00 0.00 0.00 0.00 0.00 0.01 0.01 0.00 0.00 0.00 0.00 0.00 0.00 0.00 0.00 0.00 0.00 0.00 0.00 0.00 0.00 0.00 0.00 0.00 0.01 0.02 0.02 0.01 0.00 0.00 0.00 0.01 0.01 0.02 0.02 0.02 0.02 0.03 0.04
0.00 0.01 0.01 0.01 0.01 0.01 0.00 0.00 0.00 0.00 0.01 0.01 0.00 0.00 0.00 0.00 0.00 0.00 0.00 0.00 0.00 0.00 0.00 0.00 0.00 0.00 0.00 0.00 0.00 0.01 0.01 0.01 0.00 0.00 0.00 0.01 0.01 0.01 0.01 0.01 0.01 0.01 0.01 0.02
0.01 0.01 0.01 0.02 0.01 0.01 0.00 0.00 0.00 0.00 0.00 0.01 0.00 0.00 0.00 0.00 0.00 0.00 0.00 0.00 0.00 0.00 0.00 0.00 0.00 0.00 0.00 0.00 0.00 0.00 0.00 0.00 0.00 0.01 0.01 0.01 0.01 0.01 0.01 0.01 0.01 0.01 0.01 0.02
0.01 0.01 0.02 0.03 0.02 0.01 0.00 0.00 0.00 0.01 0.01 0.01 0.01 0.01 0.00 0.00 0.00 0.01 0.01 0.01 0.01 0.00 0.00 0.00 0.00 0.00 0.00 0.00 0.00 0.00 0.01 0.01 0.01 0.02 0.02 0.02 0.02 0.01 0.01 0.01 0.01 0.01 0.02 0.02
0.00 0.01 0.02 0.03 0.02 0.02 0.01 0.00 0.00 0.01 0.01 0.00 0.01 0.01 0.01 0.00 0.00 0.01 0.01 0.01 0.01 0.01 0.00 0.00 0.00 0.01 0.00 0.00 0.00 0.01 0.01 0.01 0.01 0.02 0.02 0.02 0.02 0.01 0.01 0.01 0.01 0.01 0.02 0.02
0.01 0.01 0.01 0.01 0.01 0.01 0.01 0.00 0.00 0.00 0.01 0.00 0.00 0.01 0.01 0.00 0.00 0.00 0.00 0.01 0.01 0.00 0.00 0.00 0.00 0.01 0.01 0.01 0.00 0.00 0.00 0.01 0.01 0.01 0.01 0.01 0.02 0.02 0.02 0.03 0.02 0.01 0.01 0.01
0.01 0.01 0.01 0.01 0.01 0.01 0.01 0.01 0.00 0.00 0.00 0.00 0.00 0.00 0.01 0.01 0.00 0.00 0.00 0.00 0.00 0.00 0.00 0.00 0.01 0.01 0.01 0.01 0.00 0.00 0.00 0.00 0.01 0.01 0.01 0.01 0.02 0.02 0.03 0.04 0.04 0.03 0.02 0.02
0.01 0.01 0.01 0.01 0.01 0.01 0.01 0.01 0.00 0.00 0.00 0.00 0.00 0.00 0.01 0.01 0.01 0.01 0.01 0.01 0.01 0.01 0.00 0.00 0.01 0.01 0.01 0.01 0.01 0.01 0.01 0.01 0.01 0.01 0.01 0.01 0.01 0.01 0.02 0.02 0.02 0.03 0.03 0.02
0.01 0.01 0.01 0.01 0.02 0.01 0.01 0.01 0.01 0.01 0.01 0.01 0.01 0.01 0.01 0.02 0.02 0.01 0.01 0.01 0.01 0.01 0.01 0.01 0.01 0.01 0.01 0.01 0.01 0.01 0.01 0.01 0.01 0.01 0.01 0.01 0.01 0.01 0.01 0.01 0.01 0.01 0.02 0.02
0.01 0.01 0.01 0.01 0.01 0.01 0.01 0.01 0.01 0.01 0.01 0.01 0.01 0.01 0.01 0.01 0.01 0.01 0.01 0.01 0.00 0.00 0.00 0.00 0.00 0.00 0.01 0.01 0.01 0.01 0.00 0.01 0.01 0.00 0.01 0.01 0.01 0.01 0.01 0.01 0.01 0.01 0.01 0.01
0.02 0.01 0.01 0.01 0.01 0.02 0.02 0.02 0.01 0.01 0.01 0.01 0.01 0.01 0.01 0.01 0.01 0.01 0.01 0.00 0.00 0.00 0.00 0.00 0.00 0.00 0.00 0.00 0.00 0.00 0.00 0.01 0.01 0.01 0.01 0.01 0.01 0.01 0.01 0.01 0.01 0.01 0.01 0.01
MSLP
1016.38 1017.07 1017.61 1017.99 1018.23 1018.36 1018.41 1018.40 1018.37 1018.29 1018.17 1017.99 1017.74 1017.42 1017.06 1016.69 1016.33 1016.04 1015.83 1015.73 1015.71 1015.77 1015.88 1015.99 1016.10 1016.20 1016.29 1016.40 1016.53 1016.73 1016.99 1017.29 1017.63 1017.95 1018.23 1018.43 1018.55 1018.59 1018.57 1018.55 1018.56 1018.65 1018.84 1019.13
1016.77 1017.28 1017.61 1017.80 1017.89 1017.94 1017.98 1018.04 1018.11 1018.16 1018.16 1018.06 1017.83 1017.48 1017.01 1016.49 1015.97 1015.53 1015.22 1015.06 1015.04 1015.16 1015.35 1015.58 1015.80 1015.98 1016.14 1016.29 1016.45 1016.66 1016.93 1017.27 1017.65 1018.03 1018.36 1018.62 1018.78 1018.83 1018.80 1018.73 1018.68 1018.70 1018.82 1019.06
1016.95 1017.26 1017.41 1017.43 1017.42 1017.43 1017.50 1017.67 1017.88 1018.09 1018.21 1018.18 1017.96 1017.53 1016.93 1016.22 1015.52 1014.91 1014.47 1014.24 1014.22 1014.39 1014.69 1015.04 1015.38 1015.67 1015.91 1016.10 1016.29 1016.51 1016.80 1017.16 1017.57 1018.00 1018.39 1018.71 1018.91 1018.98 1018.95 1018.85 1018.75 1018.71 1018.76 1018.94
1016.94 1017.06 1017.04 1016.94 1016.87 1016.90 1017.06 1017.37 1017.75 1018.12 1018.36 1018.38 1018.13 1017.59 1016.83 1015.92 1015.00 1014.20 1013.62 1013.32 1013.30 1013.53 1013.93 1014.40 1014.87 1015.28 1015.60 1015.84 1016.06 1016.29 1016.57 1016.94 1017.37 1017.84 1018.28 1018.65 1018.91 1019.02 1019.00 1018.90 1018.77 1018.68 1018.67 1018.79
1016.78 1016.74 1016.58 1016.41 1016.34 1016.44 1016.73 1017.20 1017.76 1018.28 1018.62 1018.67 1018.37 1017.70 1016.74 1015.61 1014.47 1013.48 1012.75 1012.37 1012.34 1012.61 1013.11 1013.71 1014.30 1014.81 1015.21 1015.51 1015.74 1015.97 1016.25 1016.60 1017.04 1017.53 1018.03 1018.45 1018.77 1018.93 1018.96 1018.87 1018.74 1018.62 1018.58 1018.65
1016.54 1016.36 1016.12 1015.93 1015.90 1016.11 1016.56 1017.21 1017.93 1018.58 1018.99 1019.04 1018.66 1017.85 1016.69 1015.34 1013.97 1012.79 1011.92 1011.45 1011.40 1011.72 1012.29 1012.99 1013.69 1014.30 1014.77 1015.11 1015.35 1015.57 1015.83 1016.17 1016.61 1017.11 1017.64 1018.12 1018.50 1018.74 1018.83 1018.79 1018.69 1018.57 1018.52 1018.56
1016.26 1016.00 1015.72 1015.56 1015.61 1015.94 1016.55 1017.37 1018.23 1018.98 1019.43 1019.45 1018.97 1018.01 1016.66 1015.10 1013.54 1012.17 1011.17 1010.63 1010.55 1010.88 1011.52 1012.29 1013.08 1013.76 1014.29 1014.65 1014.90 1015.11 1015.34 1015.67 1016.09 1016.60 1017.16 1017.70 1018.15 1018.47 1018.63 1018.67 1018.62 1018.54 1018.49 1018.52
1016.00 1015.69 1015.43 1015.32 1015.48 1015.94 1016.69 1017.63 1018.60 1019.40 1019.85 1019.81 1019.23 1018.13 1016.61 1014.88 1013.15 1011.65 1010.54 1009.92 1009.81 1010.15 1010.81 1011.63 1012.46 1013.19 1013.76 1014.14 1014.40 1014.60 1014.82 1015.12 1015.53 1016.06 1016.64 1017.23 1017.75 1018.15 1018.41 1018.53 1018.55 1018.52 1018.50 1018.54
1015.77 1015.47 1015.25 1015.22 1015.48 1016.06 1016.91 1017.92 1018.93 1019.72 1020.13 1020.02 1019.33 1018.11 1016.47 1014.62 1012.78 1011.18 1010.00 1009.33 1009.18 1009.50 1010.16 1010.99 1011.84 1012.60 1013.18 1013.59 1013.85 1014.05 1014.27 1014.57 1014.98 1015.51 1016.12 1016.75 1017.33 1017.81 1018.16 1018.36 1018.46 1018.50 1018.52 1018.58
1015.56 1015.31 1015.16 1015.22 1015.57 1016.21 1017.10 1018.12 1019.09 1019.82 1020.15 1019.95 1019.17 1017.86 1016.16 1014.25 1012.37 1010.74 1009.53 1008.82 1008.64 1008.93 1009.56 1010.37 1011.21 1011.96 1012.56 1012.98 1013.27 1013.49 1013.72 1014.03 1014.46 1015.01 1015.64 1016.30 1016.94 1017.48 1017.90 1018.18 1018.35 1018.45 1018.52 1018.61
1015.36 1015.18 1015.12 1015.26 1015.65 1016.31 1017.17 1018.11 1018.98 1019.59 1019.80 1019.49 1018.64 1017.29 1015.59 1013.70 1011.86 1010.26 1009.06 1008.35 1008.15 1008.39 1008.97 1009.73 1010.54 1011.27 1011.87 1012.32 1012.64 1012.90 1013.18 1013.52 1013.98 1014.55 1015.21 1015.89 1016.56 1017.15 1017.62 1017.97 1018.20 1018.36 1018.47 1018.59
1015.15 1015.07 1015.08 1015.27 1015.67 1016.27 1017.03 1017.83 1018.52 1018.97 1019.02 1018.61 1017.72 1016.38 1014.73 1012.94 1011.20 1009.69 1008.56 1007.88 1007.66 1007.86 1008.37 1009.06 1009.81 1010.52 1011.11 1011.58 1011.96 1012.29 1012.62 1013.03 1013.53 1014.13 1014.80 1015.51 1016.19 1016.80 1017.31 1017.70 1017.99 1018.19 1018.35 1018.51
1014.93 1014.93 1015.01 1015.22 1015.57 1016.07 1016.66 1017.25 1017.72 1017.96 1017.85 1017.35 1016.43 1015.15 1013.61 1011.97 1010.40 1009.03 1008.00 1007.37 1007.15 1007.30 1007.73 1008.34 1009.02 1009.68 1010.27 1010.78 1011.22 1011.62 1012.04 1012.52 1013.08 1013.71 1014.40 1015.12 1015.80 1016.42 1016.95 1017.37 1017.70 1017.95 1018.16 1018.35
1014.71 1014.78 1014.90 1015.09 1015.36 1015.70 1016.07 1016.41 1016.63 1016.64 1016.37 1015.78 1014.87 1013.68 1012.30 1010.86 1009.48 1008.29 1007.39 1006.82 1006.61 1006.70 1007.05 1007.56 1008.16 1008.77 1009.35 1009.89 1010.39 1010.89 1011.40 1011.96 1012.58 1013.25 1013.96 1014.68 1015.37 1015.99 1016.53 1016.98 1017.34 1017.64 1017.90 1018.14
1014.52 1014.65 1014.77 1014.90 1015.05 1015.20 1015.33 1015.41 1015.37 1015.15 1014.73 1014.07 1013.18 1012.11 1010.91 1009.69 1008.53 1007.53 1006.76 1006.26 1006.03 1006.07 1006.32 1006.73 1007.23 1007.78 1008.35 1008.91 1009.48 1010.06 1010.67 1011.31 1012.00 1012.72 1013.44 1014.16 1014.85 1015.47 1016.02 1016.50 1016.91 1017.27 1017.59 1017.89
1014.40 1014.54 1014.64 1014.68 1014.69 1014.64 1014.53 1014.34 1014.05 1013.64 1013.08 1012.38 1011.53 1010.58 1009.57 1008.56 1007.62 1006.80 1006.15 1005.70 1005.46 1005.43 1005.57 1005.86 1006.26 1006.74 1007.28 1007.86 1008.48 1009.14 1009.83 1010.56 1011.31 1012.06 1012.81 1013.54 1014.23 1014.86 1015.43 1015.95 1016.42 1016.84 1017.23 1017.60
1014.37 1014.49 1014.52 1014.47 1014.32 1014.08 1013.75 1013.33 1012.83 1012.25 1011.59 1010.86 1010.07 1009.25 1008.41 1007.60 1006.84 1006.17 1005.61 1005.19 1004.92 1004.80 1004.82 1004.99 1005.28 1005.68 1006.18 1006.76 1007.41 1008.13 1008.90 1009.69 1010.49 1011.29 1012.06 1012.80 1013.50 1014.15 1014.76 1015.32 1015.85 1016.34 1016.81 1017.25
1014.42 1014.47 1014.42 1014.26 1013.96 1013.55 1013.04 1012.44 1011.78 1011.08 1010.36 1009.63 1008.91 1008.20 1007.51 1006.85 1006.24 1005.68 1005.18 1004.76 1004.43 1004.21 1004.12 1004.15 1004.32 1004.63 1005.07 1005.64 1006.31 1007.06 1007.88 1008.72 1009.57 1010.40 1011.20 1011.96 1012.67 1013.35 1013.99 1014.61 1015.20 1015.77 1016.31 1016.81
1014.49 1014.45 1014.30 1014.02 1013.60 1013.06 1012.41 1011.69 1010.93 1010.17 1009.43 1008.72 1008.07 1007.46 1006.89 1006.35 1005.83 1005.33 1004.86 1004.41 1004.01 1003.69 1003.46 1003.37 1003.42 1003.64 1004.01 1004.55 1005.21 1005.98 1006.82 1007.69 1008.57 1009.42 1010.24 1011.02 1011.76 1012.47 1013.15 1013.82 1014.47 1015.09 1015.69 1016.24
1014.51 1014.36 1014.09 1013.70 1013.18 1012.55 1011.82 1011.04 1010.24 1009.47 1008.74 1008.09 1007.50 1006.98 1006.50 1006.04 1005.58 1005.11 1004.63 1004.13 1003.66 1003.23 1002.89 1002.67 1002.62 1002.74 1003.04 1003.53 1004.16 1004.92 1005.76 1006.64 1007.53 1008.40 1009.23 1010.03 1010.79 1011.53 1012.24 1012.95 1013.64 1014.30 1014.93 1015.51
1014.38 1014.10 1013.72 1013.23 1012.64 1011.95 1011.19 1010.41 1009.63 1008.89 1008.22 1007.63 1007.12 1006.67 1006.26 1005.85 1005.42 1004.95 1004.44 1003.90 1003.35 1002.83 1002.39 1002.07 1001.92 1001.95 1002.19 1002.61 1003.20 1003.93 1004.75 1005.61 1006.49 1007.36 1008.20 1009.00 1009.78 1010.53 1011.27 1012.00 1012.71 1013.39 1014.03 1014.61
1014.04 1013.62 1013.13 1012.56 1011.92 1011.21 1010.47 1009.72 1009.00 1008.34 1007.75 1007.24 1006.81 1006.42 1006.06 1005.68 1005.26 1004.79 1004.25 1003.66 1003.05 1002.47 1001.95 1001.56 1001.33 1001.29 1001.46 1001.82 1002.35 1003.02 1003.80 1004.63 1005.48 1006.32 1007.15 1007.95 1008.73 1009.49 1010.24 1010.97 1011.68 1012.36 1012.99 1013.55
1013.46 1012.91 1012.31 1011.67 1011.00 1010.30 1009.60 1008.92 1008.29 1007.72 1007.23 1006.81 1006.45 1006.13 1005.80 1005.45 1005.04 1004.55 1004.00 1003.38 1002.74 1002.11 1001.56 1001.12 1000.83 1000.74 1000.84 1001.13 1001.60 1002.20 1002.91 1003.68 1004.49 1005.29 1006.09 1006.88 1007.65 1008.41 1009.15 1009.87 1010.56 1011.22 1011.82 1012.35
1012.65 1011.98 1011.30 1010.61 1009.92 1009.25 1008.61 1008.01 1007.48 1007.02 1006.62 1006.29 1006.00 1005.73 1005.43 1005.10 1004.69 1004.21 1003.65 1003.02 1002.38 1001.74 1001.17 1000.71 1000.40 1000.26 1000.31 1000.53 1000.92 1001.44 1002.07 1002.76 1003.50 1004.25 1005.01 1005.77 1006.51 1007.25 1007.97 1008.68 1009.35 1009.97 1010.54 1011.04
1011.69 1010.93 1010.18 1009.46 1008.77 1008.13 1007.55 1007.04 1006.61 1006.24 1005.93 1005.68 1005.45 1005.21 1004.94 1004.62 1004.22 1003.74 1003.19 1002.58 1001.95 1001.33 1000.77 1000.32 999.99 999.82 999.81 999.97 1000.27 1000.70 1001.23 1001.84 1002.49 1003.17 1003.87 1004.59 1005.30 1006.01 1006.71 1007.39 1008.04 1008.64 1009.18 1009.65
1010.70 1009.89 1009.10 1008.36 1007.68 1007.08 1006.56 1006.12 1005.76 1005.47 1005.24 1005.03 1004.84 1004.62 1004.37 1004.05 1003.65 1003.18 1002.65 1002.06 1001.46 1000.88 1000.35 999.90 999.58 999.38 999.33 999.42 999.63 999.96 1000.39 1000.89 1001.44 1002.04 1002.67 1003.32 1003.99 1004.67 1005.34 1005.99 1006.61 1007.20 1007.72 1008.19
Thickness
5726 5713 5704 5708 5710 5709 5703 5696 5693 5699 5709 5703 5697 5697 5703 5707 5706 5704 5704 5704 5704 5706 5710 5712 5713 5712 5711 5710 5709 5709 5708 5706 5704 5702 5700 5698 5697 5697 5697 5697 5696 5694 5693 5691
5710 5706 5717 5720 5716 5710 5703 5695 5694 5700 5707 5701 5694 5696 5703 5705 5705 5706 5706 5705 5705 5705 5707 5708 5709 5709 5708 5707 5707 5706 5705 5704 5703 5701 5699 5697 5695 5694 5694 5693 5693 5692 5690 5689
5706 5712 5723 5717 5710 5704 5700 5696 5696 5696 5700 5700 5695 5690 5697 5704 5706 5708 5708 5708 5707 5707 5705 5705 5705 5705 5705 5704 5704 5705 5703 5702 5701 5699 5697 5694 5692 5691 5690 5689 5689 5688 5688 5687
5708 5717 5717 5711 5707 5706 5695 5708 5704 5699 5688 5681 5687 5672 5690 5697 5699 5704 5706 5707 5707 5708 5707 5706 5705 5704 5704 5704 5704 5703 5702 5700 5699 5697 5694 5691 5688 5686 5686 5686 5686 5685 5685 5683
5706 5713 5711 5707 5711 5711 5705 5710 5704 5698 5688 5679 5679 5672 5681 5692 5693 5701 5705 5708 5709 5709 5708 5707 5706 5705 5704 5703 5702 5701 5699 5697 5696 5694 5693 5690 5687 5686 5685 5684 5683 5682 5681 5680
5710 5719 5717 5715 5718 5716 5711 5702 5693 5684 5677 5667 5676 5670 5675 5687 5696 5703 5708 5709 5710 5709 5708 5707 5706 5704 5702 5701 5700 5698 5696 5695 5694 5692 5691 5689 5686 5684 5682 5680 5678 5678 5677 5676
5700 5709 5717 5719 5709 5709 5703 5684 5667 5664 5657 5662 5678 5672 5679 5701 5706 5708 5709 5709 5709 5709 5706 5704 5702 5700 5699 5698 5697 5695 5693 5691 5691 5690 5688 5687 5685 5682 5680 5678 5676 5674 5673 5672
5685 5687 5708 5713 5709 5701 5697 5688 5668 5659 5656 5661 5673 5671 5688 5707 5711 5712 5712 5710 5708 5706 5705 5703 5702 5700 5698 5696 5695 5693 5691 5689 5688 5687 5685 5684 5682 5680 5678 5676 5674 5673 5671 5671
5683 5687 5710 5716 5717 5709 5694 5686 5687 5669 5666 5659 5666 5677 5694 5707 5708 5708 5707 5706 5704 5704 5703 5702 5701 5699 5696 5694 5692 5691 5688 5687 5685 5684 5682 5680 5678 5677 5675 5673 5671 5670 5669 5668
5696 5687 5702 5710 5713 5708 5703 5691 5675 5667 5656 5652 5662 5670 5678 5694 5699 5703 5702 5701 5701 5701 5700 5700 5698 5697 5695 5693 5691 5688 5686 5683 5682 5680 5678 5676 5674 5673 5672 5670 5668 5666 5665 5664
5699 5686 5690 5697 5697 5694 5693 5687 5675 5663 5661 5651 5650 5666 5696 5697 5700 5700 5700 5700 5699 5698 5697 5696 5694 5694 5692 5689 5687 5684 5681 5679 5677 5675 5673 5671 5669 5668 5666 5665 5664 5663 5661 5660
5694 5681 5675 5687 5701 5705 5699 5691 5677 5666 5660 5654 5651 5666 5702 5700 5700 5699 5697 5697 5696 5695 5694 5693 5691 5689 5686 5684 5682 5680 5677 5675 5673 5671 5668 5666 5664 5662 5661 5659 5659 5658 5656 5655
5692 5678 5667 5672 5681 5692 5691 5689 5682 5671 5658 5648 5648 5669 5697 5696 5696 5696 5694 5693 5692 5691 5689 5687 5685 5683 5681 5679 5677 5675 5673 5671 5669 5666 5663 5661 5658 5657 5655 5654 5653 5652 5651 5649
5695 5677 5670 5668 5673 5681 5684 5686 5681 5671 5657 5652 5658 5672 5687 5690 5690 5691 5691 5690 5688 5686 5684 5682 5679 5677 5676 5675 5673 5670 5668 5666 5664 5661 5658 5656 5654 5652 5651 5649 5648 5647 5646 5644
5689 5676 5678 5680 5685 5683 5684 5685 5682 5675 5670 5664 5672 5674 5685 5688 5689 5688 5688 5685 5683 5681 5679 5677 5675 5673 5671 5669 5667 5665 5663 5661 5659 5656 5653 5651 5650 5648 5646 5644 5643 5642 5641 5640
5679 5673 5674 5676 5681 5680 5678 5682 5681 5679 5677 5673 5674 5676 5688 5688 5685 5683 5682 5680 5678 5676 5675 5673 5671 5669 5667 5664 5662 5660 5658 5656 5654 5651 5648 5647 5645 5643 5641 5639 5638 5637 5635 5634
5667 5665 5660 5659 5669 5672 5666 5677 5678 5678 5679 5677 5671 5678 5682 5680 5680 5679 5678 5676 5674 5673 5671 5668 5667 5665 5662 5660 5658 5655 5653 5651 5648 5646 5644 5641 5639 5637 5636 5635 5632 5631 5629 5628
5662 5655 5646 5647 5657 5651 5669 5683 5682 5678 5678 5677 5677 5678 5678 5677 5677 5676 5675 5671 5669 5668 5666 5664 5662 5659 5658 5655 5653 5650 5647 5644 5642 5640 5637 5636 5634 5632 5630 5628 5626 5625 5623 5622
5662 5654 5641 5636 5639 5647 5665 5676 5675 5671 5670 5676 5674 5674 5673 5672 5670 5668 5671 5669 5666 5665 5662 5660 5658 5655 5652 5649 5647 5643 5639 5636 5634 5632 5631 5629 5628 5626 5624 5622 5620 5619 5616 5615
5652 5650 5639 5631 5635 5636 5658 5674 5676 5670 5661 5672 5670 5668 5665 5663 5654 5657 5666 5663 5661 5659 5657 5654 5651 5648 5644 5642 5639 5635 5631 5628 5627 5626 5625 5623 5622 5620 5618 5616 5614 5612 5610 5609
5640 5635 5631 5627 5629 5638 5658 5665 5668 5651 5653 5666 5664 5662 5659 5655 5655 5658 5659 5657 5654 5652 5649 5647 5643 5639 5636 5634 5631 5627 5624 5622 5622 5620 5618 5616 5615 5613 5611 5609 5607 5605 5603 5601
5634 5628 5625 5621 5622 5633 5655 5654 5650 5650 5657 5658 5657 5657 5654 5653 5653 5652 5650 5648 5646 5643 5641 5638 5634 5630 5628 5625 5623 5619 5616 5616 5615 5612 5610 5608 5607 5606 5605 5601 5599 5597 5595 5593
5628 5631 5628 5628 5632 5641 5645 5647 5650 5650 5649 5650 5649 5650 5649 5646 5644 5643 5640 5638 5636 5634 5632 5629 5625 5621 5618 5616 5614 5612 5610 5609 5606 5603 5601 5600 5598 5597 5596 5593 5591 5589 5587 5585
5624 5626 5624 5624 5632 5637 5639 5642 5644 5644 5643 5644 5644 5643 5641 5638 5635 5633 5630 5628 5626 5624 5622 5619 5615 5612 5609 5607 5606 5605 5603 5601 5598 5595 5593 5592 5589 5588 5587 5586 5584 5581 5579 5577
5617 5617 5617 5618 5625 5629 5634 5634 5636 5636 5636 5636 5635 5634 5632 5630 5626 5623 5620 5618 5616 5614 5612 5609 5606 5603 5601 5599 5597 5596 5594 5592 5589 5587 5585 5583 5581 5580 5578 5578 5576 5575 5575 5573
5608 5610 5610 5615 5621 5619 5622 5627 5628 5627 5625 5625 5623 5622 5622 5620 5617 5615 5612 5609 5607 5605 5602 5599 5597 5594 5592 5590 5588 5587 5586 5584 5580 5577 5575 5574 5572 5571 5569 5568 5567 5567 5567 5567